Regional Weather Roundup
Issued by NWS Kansas City/Pleasant Hill, MO

Home | Current Version | Previous Version | Text Only | Print | Product List | Glossary On
Versions: 1 2 3 4 5 6 7 8 9 10 11 12 13 14 15 16 17 18 19 20 21 22 23 24 25 26 27 28 29 30 31 32 33 34 35 36 37 38 39 40 41 42 43 44 45 46 47 48 49 50
000
ASUS43 KEAX 020604
RWREAX

WEATHER ROUNDUP FOR EASTERN KANSAS AND NORTHWEST MISSOURI
NATIONAL WEATHER SERVICE KANSAS CITY/PLEASANT HILL MO
100 AM CDT SAT AUG 02 2014

KSZ040-057-103>105-MOZ028-029-037-043-020700-
...KANSAS CITY METROPOLITAN AREA...

CITY           SKY/WX    TMP DP  RH WIND       PRES   REMARKS
K.C. INTL      CLEAR     70  62  76 SE6       30.11R
6HR MIN TEMP:  70; 6HR MAX TEMP:  82;

K.C. DOWNTOWN  CLEAR     74  62  66 E5        30.10R
6HR MIN TEMP:  73; 6HR MAX TEMP:  83;

LEES SUMMIT    CLEAR     69  62  78 E6        30.11S
6HR MIN TEMP:  68; 6HR MAX TEMP:  82;

OLATHE - IXD   CLEAR     69  62  78 E3        30.11R
6HR MIN TEMP:  69; 6HR MAX TEMP:  83;

OLATHE - OJC   MOCLDY    71  62  73 E6        30.10R
6HR MIN TEMP:  71; 6HR MAX TEMP:  81;

LAWRENCE       CLEAR     68  62  81 E5        30.10R

$$

MOZ001>008-011>017-020>025-030>033-038>040-044>046-053-054-020700-
...NORTHERN AND CENTRAL MISSOURI...

CITY           SKY/WX    TMP DP  RH WIND       PRES   REMARKS
ST. JOSEPH     CLEAR     63  61  93 NW3       30.11R
6HR MIN TEMP:  63; 6HR MAX TEMP:  82;

MOSBY          CLEAR     64  63  94 CALM      30.10S FOG
WHITEMAN AFB   CLEAR     67  52  59 VRB1      30.10S
6HR MIN TEMP:  65; 6HR MAX TEMP:  81;

CLINTON        CLEAR     66  63  88 CALM      30.10S
SEDALIA        CLEAR     66  60  81 E5        30.11S
6HR MIN TEMP:  65; 6HR MAX TEMP:  81;

WARSAW         NOT AVBL
MARSHALL       CLEAR     70  66  88 E3        30.12S
CHILLICOTHE      N/A     64  60  87 CALM      30.12S
6HR MIN TEMP:  63; 6HR MAX TEMP:  84;

KIRKSVILLE     CLEAR     59  58  96 CALM      30.11S FOG
6HR MIN TEMP:  59; 6HR MAX TEMP:  82;


$$

MOZ041-047>049-056>058-063>065-088>090-097-020700-
...EASTERN AND SOUTHERN MISSOURI...

CITY           SKY/WX    TMP DP  RH WIND       PRES   REMARKS
ST. LOUIS INTL PTCLDY    70  62  76 CALM      30.10S
6HR MIN TEMP:  69; 6HR MAX TEMP:  76;

SPIRIT OF STL  FOG       63  62  97 CALM      30.08F VSB 1/2
COLUMBIA       CLEAR     64  61  90 E5        30.11S
JEFFERSON CITY CLEAR     66  62  87 CALM      30.10S
MEXICO         CLEAR    N/A N/A N/A S3        30.10F HAZE
ROLLA          CLEAR     65  60  84 E5        30.10S
LEBANON        CLEAR     68  59  73 E3        30.11F
OSAGE BEACH      N/A     64  59  82 CALM      30.10F
SPRINGFIELD    CLOUDY    70  63  78 S3        30.09F
BRANSON        CLEAR     66  64  94 CALM      30.11F
NEVADA         CLEAR     64  63  94 E3        30.10S
JOPLIN         MOCLDY    67  64  90 E3        30.09S
WEST PLAINS    PTCLDY    64  62  93 CALM      30.11F

$$

IAZ060-094-KSZ022-034>040-054-083-096-NEZ052-066-093-020700-
...KANSAS...SOUTHEAST NEBRASKA AND IOWA...

CITY           SKY/WX    TMP DP  RH WIND       PRES   REMARKS
TOPEKA         CLEAR     70  64  81 E6        30.09R
6HR MIN TEMP:  70; 6HR MAX TEMP:  86;

MANHATTAN      CLEAR     73  64  73 E3        30.07R
EMPORIA        CLEAR     69  63  81 S8        30.08S
CHANUTE        MOCLDY    67  64  90 E3        30.08S
WICHITA        PTCLDY    69  64  84 S6        30.07S
OMAHA          CLEAR     67  62  84 CALM      30.12S
LINCOLN        CLEAR     65  59  81 N5        30.13S
FALLS CITY     PTCLDY    67  64  90 NE3       30.11R
LAMONI         CLEAR     64  62  93 CALM      30.13R
DES MOINES     CLEAR     70  60  70 CALM      30.12R

$$



USA.gov is the U.S. government's official web portal to all federal, state and local government web resources and services.